Time,TemperatureF,DewpointF,PressureIn,WindDirection,WindDirectionDegrees,WindSpeedMPH,WindSpeedGustMPH,Humidity,HourlyPrecipIn,Conditions,Clouds,dailyrainin,SoftwareType,DateUTC
2013-11-22 00:02:00,66.0,65.5,30.17,ESE,102,3.0,8.0,98,0.00,,,0.00,meteohub,2013-11-22 06:02:00,
2013-11-22 00:07:00,66.0,65.5,30.16,East,97,1.0,7.0,98,0.00,,,0.00,meteohub,2013-11-22 06:07:00,
2013-11-22 00:12:00,66.0,65.5,30.17,ESE,116,3.0,9.0,98,0.00,,,0.00,meteohub,2013-11-22 06:12:00,
2013-11-22 00:17:00,66.0,65.5,30.17,ENE,68,2.0,10.0,98,0.00,,,0.00,meteohub,2013-11-22 06:17:00,
2013-11-22 00:22:00,66.0,65.5,30.17,SE,138,5.0,10.0,98,0.00,,,0.00,meteohub,2013-11-22 06:22:00,
2013-11-22 00:27:00,66.0,65.5,30.16,ENE,70,4.0,8.0,98,0.00,,,0.00,meteohub,2013-11-22 06:27:00,
2013-11-22 00:32:00,66.0,65.5,30.16,East,87,2.0,8.0,98,0.00,,,0.00,meteohub,2013-11-22 06:32:00,
2013-11-22 00:37:00,66.0,65.5,30.16,East,82,1.0,8.0,98,0.00,,,0.00,meteohub,2013-11-22 06:37:00,
2013-11-22 00:42:00,66.0,65.5,30.16,SE,133,3.0,8.0,98,0.00,,,0.00,meteohub,2013-11-22 06:42:00,
2013-11-22 00:47:00,65.8,65.3,30.16,ENE,67,2.0,6.0,98,0.00,,,0.00,meteohub,2013-11-22 06:47:00,
2013-11-22 00:52:00,65.8,65.3,30.16,East,86,3.0,8.0,98,0.00,,,0.00,meteohub,2013-11-22 06:52:00,
2013-11-22 00:57:00,65.8,65.3,30.16,ENE,78,5.0,9.0,98,0.00,,,0.00,meteohub,2013-11-22 06:57:00,
2013-11-22 01:02:00,65.8,65.3,30.16,ESE,103,3.0,9.0,98,0.00,,,0.00,meteohub,2013-11-22 07:02:00,
2013-11-22 01:07:00,65.8,65.3,30.16,ENE,73,1.0,12.0,98,0.00,,,0.00,meteohub,2013-11-22 07:07:00,
2013-11-22 01:12:00,65.8,65.3,30.16,ENE,74,5.0,12.0,98,0.00,,,0.00,meteohub,2013-11-22 07:12:00,
2013-11-22 01:17:00,65.8,65.3,30.16,ENE,61,7.0,9.0,98,0.00,,,0.00,meteohub,2013-11-22 07:17:00,
2013-11-22 01:22:00,65.8,65.3,30.16,East,96,3.0,9.0,98,0.00,,,0.00,meteohub,2013-11-22 07:22:00,
2013-11-22 01:27:00,65.7,65.1,30.16,SE,146,3.0,9.0,98,0.00,,,0.00,meteohub,2013-11-22 07:27:00,
2013-11-22 01:32:00,65.7,65.1,30.16,ENE,68,4.0,9.0,98,0.00,,,0.00,meteohub,2013-11-22 07:32:00,
2013-11-22 01:37:00,65.7,65.1,30.16,ENE,74,4.0,9.0,98,0.00,,,0.00,meteohub,2013-11-22 07:37:00,
2013-11-22 01:42:00,65.7,65.1,30.16,ESE,117,3.0,8.0,98,0.00,,,0.00,meteohub,2013-11-22 07:42:00,
2013-11-22 01:47:00,65.7,65.1,30.16,ENE,76,4.0,8.0,98,0.00,,,0.00,meteohub,2013-11-22 07:47:00,
2013-11-22 01:52:00,65.7,65.1,30.16,ESE,114,1.0,9.0,98,0.00,,,0.00,meteohub,2013-11-22 07:52:00,
2013-11-22 01:57:00,65.7,65.1,30.16,ENE,65,2.0,9.0,98,0.00,,,0.00,meteohub,2013-11-22 07:57:00,
2013-11-22 02:02:00,65.7,65.1,30.16,East,84,2.0,9.0,98,0.00,,,0.00,meteohub,2013-11-22 08:02:00,
2013-11-22 02:07:00,65.7,65.1,30.16,ENE,67,2.0,8.0,98,0.00,,,0.00,meteohub,2013-11-22 08:07:00,
2013-11-22 02:12:00,65.7,65.1,30.16,ESE,117,3.0,8.0,98,0.00,,,0.00,meteohub,2013-11-22 08:12:00,
2013-11-22 02:17:00,65.7,65.1,30.16,ESE,107,1.0,9.0,98,0.00,,,0.00,meteohub,2013-11-22 08:17:00,
2013-11-22 02:22:00,65.7,65.1,30.15,ENE,72,3.0,11.0,98,0.00,,,0.00,meteohub,2013-11-22 08:22:00,
2013-11-22 02:27:00,65.7,65.1,30.15,South,186,4.0,11.0,98,0.00,,,0.00,meteohub,2013-11-22 08:27:00,
2013-11-22 02:32:00,65.7,65.1,30.15,East,80,2.0,11.0,98,0.00,,,0.00,meteohub,2013-11-22 08:32:00,
2013-11-22 02:37:00,65.7,65.1,30.15,SE,139,2.0,8.0,98,0.00,,,0.00,meteohub,2013-11-22 08:37:00,
2013-11-22 02:42:00,65.7,65.1,30.15,ESE,104,0.0,7.0,98,0.00,,,0.00,meteohub,2013-11-22 08:42:00,
2013-11-22 02:47:00,65.7,65.3,30.14,ENE,76,8.0,8.0,99,0.00,,,0.00,meteohub,2013-11-22 08:47:00,
2013-11-22 02:52:00,65.7,65.3,30.14,ENE,76,4.0,9.0,99,0.00,,,0.00,meteohub,2013-11-22 08:52:00,
2013-11-22 02:57:00,65.7,65.3,30.15,East,82,6.0,9.0,99,0.00,,,0.00,meteohub,2013-11-22 08:57:00,
2013-11-22 03:02:00,65.7,65.3,30.15,ENE,66,4.0,9.0,99,0.00,,,0.00,meteohub,2013-11-22 09:02:00,
2013-11-22 03:07:00,65.7,65.3,30.15,East,99,1.0,8.0,99,0.00,,,0.00,meteohub,2013-11-22 09:07:00,
2013-11-22 03:12:00,65.7,65.3,30.15,ENE,59,4.0,8.0,99,0.00,,,0.00,meteohub,2013-11-22 09:12:00,
2013-11-22 03:17:00,65.7,65.3,30.15,East,81,2.0,7.0,99,0.00,,,0.00,meteohub,2013-11-22 09:17:00,
2013-11-22 03:22:00,65.7,65.3,30.15,ENE,69,3.0,7.0,99,0.00,,,0.00,meteohub,2013-11-22 09:22:00,
2013-11-22 03:27:00,65.7,65.3,30.14,ESE,116,3.0,7.0,99,0.00,,,0.00,meteohub,2013-11-22 09:27:00,
2013-11-22 03:32:00,65.7,65.3,30.14,ESE,120,2.0,7.0,99,0.00,,,0.00,meteohub,2013-11-22 09:32:00,
2013-11-22 03:37:00,65.7,65.3,30.14,ESE,103,0.0,7.0,99,0.00,,,0.00,meteohub,2013-11-22 09:37:00,
2013-11-22 03:42:00,65.7,65.3,30.14,ESE,111,0.0,5.0,99,0.00,,,0.00,meteohub,2013-11-22 09:42:00,
2013-11-22 03:47:00,65.7,65.3,30.14,East,98,2.0,5.0,99,0.00,,,0.00,meteohub,2013-11-22 09:47:00,
2013-11-22 03:52:00,65.7,65.3,30.14,ENE,70,1.0,5.0,99,0.00,,,0.00,meteohub,2013-11-22 09:52:00,
2013-11-22 03:57:00,65.7,65.3,30.14,ENE,76,3.0,5.0,99,0.00,,,0.00,meteohub,2013-11-22 09:57:00,
2013-11-22 04:02:00,65.7,65.3,30.14,SE,133,3.0,5.0,99,0.00,,,0.00,meteohub,2013-11-22 10:02:00,
2013-11-22 04:07:00,65.7,65.3,30.14,SE,131,3.0,5.0,99,0.00,,,0.00,meteohub,2013-11-22 10:07:00,
2013-11-22 04:12:00,65.7,65.3,30.14,SE,126,4.0,5.0,99,0.00,,,0.00,meteohub,2013-11-22 10:12:00,
2013-11-22 04:17:00,65.7,65.3,30.14,East,101,2.0,6.0,99,0.00,,,0.00,meteohub,2013-11-22 10:17:00,
2013-11-22 04:22:00,65.7,65.3,30.13,ENE,74,0.0,6.0,99,0.00,,,0.00,meteohub,2013-11-22 10:22:00,
2013-11-22 04:27:00,65.7,65.3,30.13,ESE,113,2.0,6.0,99,0.00,,,0.00,meteohub,2013-11-22 10:27:00,
2013-11-22 04:32:00,65.7,65.3,30.14,ENE,71,0.0,5.0,99,0.00,,,0.00,meteohub,2013-11-22 10:32:00,
2013-11-22 04:37:00,65.8,65.5,30.14,NE,56,2.0,5.0,99,0.00,,,0.00,meteohub,2013-11-22 10:37:00,
2013-11-22 04:42:00,65.8,65.5,30.14,ENE,57,0.0,5.0,99,0.00,,,0.00,meteohub,2013-11-22 10:42:00,
2013-11-22 04:47:00,65.8,65.5,30.14,SE,132,2.0,5.0,99,0.00,,,0.00,meteohub,2013-11-22 10:47:00,
2013-11-22 04:52:00,65.8,65.5,30.14,SE,132,1.0,5.0,99,0.00,,,0.00,meteohub,2013-11-22 10:52:00,
2013-11-22 04:57:00,65.8,65.5,30.14,SE,124,1.0,5.0,99,0.00,,,0.00,meteohub,2013-11-22 10:57:00,
2013-11-22 05:02:00,65.8,65.5,30.14,East,96,2.0,5.0,99,0.00,,,0.00,meteohub,2013-11-22 11:02:00,
2013-11-22 05:07:00,65.8,65.5,30.14,ENE,71,3.0,6.0,99,0.00,,,0.00,meteohub,2013-11-22 11:07:00,
2013-11-22 05:12:00,65.8,65.5,30.14,ESE,121,1.0,6.0,99,0.00,,,0.00,meteohub,2013-11-22 11:12:00,
2013-11-22 05:17:00,66.0,65.7,30.15,ESE,117,3.0,5.0,99,0.00,,,0.00,meteohub,2013-11-22 11:17:00,
2013-11-22 05:22:00,66.0,65.7,30.15,ESE,115,1.0,5.0,99,0.00,,,0.00,meteohub,2013-11-22 11:22:00,
2013-11-22 05:27:00,66.0,65.7,30.15,East,80,5.0,5.0,99,0.00,,,0.00,meteohub,2013-11-22 11:27:00,
2013-11-22 05:32:00,66.0,65.7,30.16,ENE,72,1.0,5.0,99,0.00,,,0.00,meteohub,2013-11-22 11:32:00,
2013-11-22 05:37:00,66.0,65.7,30.17,ENE,72,0.0,5.0,99,0.00,,,0.00,meteohub,2013-11-22 11:37:00,
2013-11-22 05:42:00,66.0,65.7,30.17,ENE,72,0.0,5.0,99,0.00,,,0.00,meteohub,2013-11-22 11:42:00,
2013-11-22 05:47:00,66.2,65.8,30.18,ENE,72,0.0,3.0,99,0.00,,,0.00,meteohub,2013-11-22 11:47:00,
2013-11-22 05:52:00,66.2,65.8,30.18,ENE,72,1.0,2.0,99,0.00,,,0.00,meteohub,2013-11-22 11:52:00,
2013-11-22 05:57:00,66.4,66.0,30.18,ENE,72,0.0,2.0,99,0.00,,,0.00,meteohub,2013-11-22 11:57:00,
2013-11-22 06:02:00,66.4,66.0,30.18,ENE,72,1.0,2.0,99,0.00,,,0.00,meteohub,2013-11-22 12:02:00,
2013-11-22 06:07:00,66.4,66.0,30.18,ENE,62,4.0,4.0,99,0.00,,,0.00,meteohub,2013-11-22 12:07:00,
2013-11-22 06:12:00,66.4,66.0,30.18,ENE,62,2.0,5.0,99,0.00,,,0.00,meteohub,2013-11-22 12:12:00,
2013-11-22 06:17:00,66.4,66.0,30.18,ENE,62,0.0,5.0,99,0.00,,,0.00,meteohub,2013-11-22 12:17:00,
2013-11-22 06:22:00,66.4,66.0,30.18,ENE,62,0.0,5.0,99,0.00,,,0.00,meteohub,2013-11-22 12:22:00,
2013-11-22 06:27:00,66.4,66.0,30.19,ENE,62,1.0,3.0,99,0.00,,,0.00,meteohub,2013-11-22 12:27:00,
2013-11-22 06:32:00,66.4,66.0,30.19,ENE,62,0.0,3.0,99,0.00,,,0.00,meteohub,2013-11-22 12:32:00,
2013-11-22 06:37:00,66.4,66.0,30.19,ENE,62,2.0,3.0,99,0.00,,,0.00,meteohub,2013-11-22 12:37:00,
2013-11-22 06:42:00,66.6,66.2,30.18,ESE,115,1.0,3.0,99,0.00,,,0.00,meteohub,2013-11-22 12:42:00,
2013-11-22 06:47:00,66.6,66.0,30.19,ESE,114,1.0,3.0,98,0.00,,,0.00,meteohub,2013-11-22 12:47:00,
2013-11-22 06:52:00,66.6,66.0,30.19,ESE,109,1.0,3.0,98,0.00,,,0.00,meteohub,2013-11-22 12:52:00,
2013-11-22 06:57:00,66.6,66.0,30.19,SSE,162,2.0,3.0,98,0.00,,,0.00,meteohub,2013-11-22 12:57:00,
2013-11-22 07:02:00,66.6,66.0,30.19,SSE,162,1.0,3.0,98,0.00,,,0.00,meteohub,2013-11-22 13:02:00,
2013-11-22 07:07:00,66.6,66.0,30.18,ENE,78,0.0,3.0,98,0.00,,,0.00,meteohub,2013-11-22 13:07:00,
2013-11-22 07:12:00,66.7,66.2,30.18,ENE,74,2.0,3.0,98,0.00,,,0.00,meteohub,2013-11-22 13:12:00,
2013-11-22 07:17:00,66.7,66.2,30.19,SE,130,1.0,4.0,98,0.00,,,0.00,meteohub,2013-11-22 13:17:00,
2013-11-22 07:22:00,66.7,66.2,30.19,SE,131,2.0,4.0,98,0.00,,,0.00,meteohub,2013-11-22 13:22:00,
2013-11-22 07:27:00,66.9,66.4,30.19,SE,125,0.0,4.0,98,0.00,,,0.00,meteohub,2013-11-22 13:27:00,
2013-11-22 07:32:00,67.1,66.6,30.19,SE,129,2.0,4.0,98,0.00,,,0.00,meteohub,2013-11-22 13:32:00,
2013-11-22 07:37:00,67.5,66.9,30.19,SE,128,1.0,3.0,98,0.00,,,0.00,meteohub,2013-11-22 13:37:00,
2013-11-22 07:42:00,67.6,66.7,30.19,SE,141,1.0,4.0,97,0.00,,,0.00,meteohub,2013-11-22 13:42:00,
2013-11-22 07:47:00,67.6,66.7,30.19,ENE,63,4.0,4.0,97,0.00,,,0.00,meteohub,2013-11-22 13:47:00,
2013-11-22 07:52:00,67.8,66.9,30.19,SE,139,2.0,8.0,97,0.00,,,0.00,meteohub,2013-11-22 13:52:00,
2013-11-22 07:57:00,68.0,66.7,30.19,ENE,76,2.0,8.0,96,0.00,,,0.00,meteohub,2013-11-22 13:57:00,
2013-11-22 08:02:00,68.2,66.9,30.19,SSE,165,1.0,8.0,96,0.00,,,0.00,meteohub,2013-11-22 14:02:00,
2013-11-22 08:07:00,68.5,67.3,30.19,East,90,1.0,7.0,96,0.00,,,0.00,meteohub,2013-11-22 14:07:00,
2013-11-22 08:12:00,68.5,67.1,30.20,SE,127,2.0,7.0,95,0.00,,,0.00,meteohub,2013-11-22 14:12:00,
2013-11-22 08:17:00,68.7,67.3,30.20,SE,127,3.0,6.0,95,0.00,,,0.00,meteohub,2013-11-22 14:17:00,
2013-11-22 08:22:00,69.1,67.3,30.20,East,79,5.0,5.0,94,0.00,,,0.00,meteohub,2013-11-22 14:22:00,
2013-11-22 08:27:00,69.3,67.5,30.20,ENE,73,1.0,6.0,94,0.00,,,0.00,meteohub,2013-11-22 14:27:00,
2013-11-22 08:32:00,69.4,67.6,30.20,SSE,157,4.0,6.0,94,0.00,,,0.00,meteohub,2013-11-22 14:32:00,
2013-11-22 08:37:00,70.0,67.8,30.20,SSE,150,4.0,6.0,93,0.00,,,0.00,meteohub,2013-11-22 14:37:00,
2013-11-22 08:42:00,70.3,67.8,30.20,SE,134,4.0,6.0,92,0.00,,,0.00,meteohub,2013-11-22 14:42:00,
2013-11-22 08:47:00,70.5,68.0,30.20,SE,142,4.0,6.0,92,0.00,,,0.00,meteohub,2013-11-22 14:47:00,
2013-11-22 08:52:00,71.1,68.4,30.20,ENE,60,2.0,6.0,91,0.00,,,0.00,meteohub,2013-11-22 14:52:00,
2013-11-22 08:57:00,71.4,68.4,30.20,ENE,74,2.0,5.0,90,0.00,,,0.00,meteohub,2013-11-22 14:57:00,
2013-11-22 09:02:00,71.1,68.0,30.21,ENE,76,3.0,7.0,90,0.00,,,0.00,meteohub,2013-11-22 15:02:00,
2013-11-22 09:07:00,70.9,67.8,30.21,ENE,63,1.0,7.0,90,0.00,,,0.00,meteohub,2013-11-22 15:07:00,
2013-11-22 09:12:00,71.1,68.4,30.21,East,87,3.0,7.0,91,0.00,,,0.00,meteohub,2013-11-22 15:12:00,
2013-11-22 09:17:00,70.9,67.8,30.22,ENE,69,1.0,5.0,90,0.00,,,0.00,meteohub,2013-11-22 15:17:00,
2013-11-22 09:22:00,70.9,68.2,30.21,ESE,115,1.0,7.0,91,0.00,,,0.00,meteohub,2013-11-22 15:22:00,
2013-11-22 09:27:00,70.9,68.2,30.21,ENE,76,3.0,7.0,91,0.00,,,0.00,meteohub,2013-11-22 15:27:00,
2013-11-22 09:32:00,70.7,68.0,30.22,ENE,68,4.0,7.0,91,0.00,,,0.00,meteohub,2013-11-22 15:32:00,
2013-11-22 09:37:00,70.9,68.2,30.22,ENE,70,4.0,8.0,91,0.00,,,0.00,meteohub,2013-11-22 15:37:00,
2013-11-22 09:42:00,70.9,68.4,30.22,East,90,1.0,8.0,92,0.00,,,0.00,meteohub,2013-11-22 15:42:00,
2013-11-22 09:47:00,71.2,68.5,30.22,ENE,70,4.0,5.0,91,0.00,,,0.00,meteohub,2013-11-22 15:47:00,
2013-11-22 09:52:00,71.8,69.1,30.23,East,80,1.0,5.0,91,0.00,,,0.00,meteohub,2013-11-22 15:52:00,
2013-11-22 09:57:00,72.3,68.5,30.23,ENE,71,4.0,5.0,88,0.00,,,0.00,meteohub,2013-11-22 15:57:00,
2013-11-22 10:02:00,72.1,68.7,30.23,ENE,78,3.0,7.0,89,0.00,,,0.00,meteohub,2013-11-22 16:02:00,
2013-11-22 10:07:00,72.0,68.5,30.24,ENE,73,3.0,7.0,89,0.00,,,0.00,meteohub,2013-11-22 16:07:00,
2013-11-22 10:12:00,72.0,68.9,30.24,NNW,342,0.0,7.0,90,0.00,,,0.00,meteohub,2013-11-22 16:12:00,
2013-11-22 10:17:00,72.1,68.7,30.24,ENE,67,2.0,5.0,89,0.00,,,0.00,meteohub,2013-11-22 16:17:00,
2013-11-22 10:22:00,72.1,68.7,30.24,ENE,59,1.0,4.0,89,0.00,,,0.00,meteohub,2013-11-22 16:22:00,
2013-11-22 10:27:00,72.1,68.7,30.24,ENE,63,1.0,4.0,89,0.00,,,0.00,meteohub,2013-11-22 16:27:00,
2013-11-22 10:32:00,72.0,68.5,30.24,NNW,329,1.0,4.0,89,0.00,,,0.00,meteohub,2013-11-22 16:32:00,
2013-11-22 10:37:00,72.0,68.5,30.24,NNW,334,0.0,4.0,89,0.00,,,0.00,meteohub,2013-11-22 16:37:00,
2013-11-22 10:42:00,72.0,68.5,30.24,NNW,334,0.0,4.0,89,0.00,,,0.00,meteohub,2013-11-22 16:42:00,
2013-11-22 10:47:00,72.0,68.9,30.25,NNW,334,0.0,4.0,90,0.00,,,0.00,meteohub,2013-11-22 16:47:00,
2013-11-22 10:52:00,71.8,68.7,30.25,NW,306,8.0,8.0,90,0.00,,,0.00,meteohub,2013-11-22 16:52:00,
2013-11-22 10:57:00,71.2,67.1,30.25,North,350,11.0,11.0,87,0.00,,,0.00,meteohub,2013-11-22 16:57:00,
2013-11-22 11:02:00,70.0,65.7,30.25,NNW,347,3.0,13.0,86,0.00,,,0.00,meteohub,2013-11-22 17:02:00,
2013-11-22 11:07:00,68.7,65.3,30.25,NW,324,4.0,13.0,89,0.00,,,0.00,meteohub,2013-11-22 17:07:00,
2013-11-22 11:12:00,68.0,65.7,30.25,NNE,24,0.0,13.0,92,0.01,,,0.01,meteohub,2013-11-22 17:12:00,
2013-11-22 11:17:00,67.3,65.1,30.25,NNE,22,1.0,9.0,93,0.02,,,0.02,meteohub,2013-11-22 17:17:00,
2013-11-22 11:22:00,66.9,65.1,30.25,ENE,69,2.0,8.0,94,0.03,,,0.03,meteohub,2013-11-22 17:22:00,
2013-11-22 11:27:00,66.7,64.9,30.25,North,5,1.0,8.0,94,0.03,,,0.03,meteohub,2013-11-22 17:27:00,
2013-11-22 11:32:00,66.6,65.1,30.24,ENE,62,0.0,5.0,95,0.03,,,0.03,meteohub,2013-11-22 17:32:00,
2013-11-22 11:37:00,66.6,65.3,30.24,ENE,62,0.0,4.0,96,0.04,,,0.04,meteohub,2013-11-22 17:37:00,
2013-11-22 11:42:00,66.6,65.3,30.24,NNW,332,0.0,4.0,96,0.04,,,0.04,meteohub,2013-11-22 17:42:00,
2013-11-22 11:47:00,66.6,65.3,30.23,North,351,0.0,3.0,96,0.04,,,0.04,meteohub,2013-11-22 17:47:00,
2013-11-22 11:52:00,66.7,65.8,30.24,North,351,0.0,3.0,97,0.04,,,0.04,meteohub,2013-11-22 17:52:00,
2013-11-22 11:57:00,66.7,65.5,30.24,NNW,336,0.0,3.0,96,0.04,,,0.04,meteohub,2013-11-22 17:57:00,
2013-11-22 12:02:00,66.7,65.5,30.23,NNW,336,0.0,2.0,96,0.04,,,0.04,meteohub,2013-11-22 18:02:00,
2013-11-22 12:07:00,66.9,66.0,30.23,East,84,1.0,2.0,97,0.04,,,0.04,meteohub,2013-11-22 18:07:00,
2013-11-22 12:12:00,66.9,65.7,30.23,ENE,69,0.0,5.0,96,0.02,,,0.04,meteohub,2013-11-22 18:12:00,
2013-11-22 12:17:00,66.9,65.7,30.22,NE,42,2.0,5.0,96,0.01,,,0.04,meteohub,2013-11-22 18:17:00,
2013-11-22 12:22:00,66.9,66.0,30.22,NE,42,0.0,5.0,97,0.01,,,0.04,meteohub,2013-11-22 18:22:00,
2013-11-22 12:27:00,67.3,66.4,30.22,NE,40,2.0,3.0,97,0.01,,,0.04,meteohub,2013-11-22 18:27:00,
2013-11-22 12:32:00,67.3,66.0,30.22,NE,43,1.0,3.0,96,0.00,,,0.04,meteohub,2013-11-22 18:32:00,
2013-11-22 12:37:00,67.5,66.2,30.22,NE,43,1.0,3.0,96,0.00,,,0.04,meteohub,2013-11-22 18:37:00,
2013-11-22 12:42:00,67.6,66.7,30.21,NE,43,0.0,2.0,97,0.00,,,0.04,meteohub,2013-11-22 18:42:00,
2013-11-22 12:47:00,67.6,66.4,30.21,NE,34,0.0,3.0,96,0.00,,,0.04,meteohub,2013-11-22 18:47:00,
2013-11-22 12:52:00,67.6,66.4,30.21,ENE,76,2.0,5.0,96,0.00,,,0.04,meteohub,2013-11-22 18:52:00,
2013-11-22 12:57:00,67.6,66.2,30.20,ENE,58,0.0,7.0,95,0.00,,,0.04,meteohub,2013-11-22 18:57:00,
2013-11-22 13:02:00,67.6,66.2,30.20,West,274,0.0,7.0,95,0.00,,,0.04,meteohub,2013-11-22 19:02:00,
2013-11-22 13:07:00,67.8,66.4,30.20,ENE,72,2.0,5.0,95,0.00,,,0.04,meteohub,2013-11-22 19:07:00,
2013-11-22 13:12:00,68.2,66.7,30.19,ENE,63,2.0,5.0,95,0.00,,,0.04,meteohub,2013-11-22 19:12:00,
2013-11-22 13:17:00,68.7,67.3,30.19,ENE,72,5.0,8.0,95,0.00,,,0.04,meteohub,2013-11-22 19:17:00,
2013-11-22 13:22:00,69.3,67.5,30.18,ENE,57,0.0,9.0,94,0.00,,,0.04,meteohub,2013-11-22 19:22:00,
2013-11-22 13:27:00,70.0,67.5,30.19,ENE,60,2.0,9.0,92,0.00,,,0.04,meteohub,2013-11-22 19:27:00,
2013-11-22 13:32:00,70.0,67.3,30.18,ESE,111,0.0,9.0,91,0.00,,,0.04,meteohub,2013-11-22 19:32:00,
2013-11-22 13:37:00,70.3,67.3,30.17,East,82,2.0,7.0,90,0.00,,,0.04,meteohub,2013-11-22 19:37:00,
2013-11-22 13:42:00,70.3,66.6,30.17,East,93,5.0,9.0,88,0.00,,,0.04,meteohub,2013-11-22 19:42:00,
2013-11-22 13:47:00,70.3,66.6,30.17,ENE,68,8.0,10.0,88,0.00,,,0.04,meteohub,2013-11-22 19:47:00,
2013-11-22 13:52:00,70.3,66.9,30.16,ENE,65,3.0,10.0,89,0.00,,,0.04,meteohub,2013-11-22 19:52:00,
2013-11-22 13:57:00,70.5,66.7,30.17,East,87,3.0,10.0,88,0.00,,,0.04,meteohub,2013-11-22 19:57:00,
2013-11-22 14:02:00,70.7,66.6,30.17,ENE,71,4.0,10.0,87,0.00,,,0.04,meteohub,2013-11-22 20:02:00,
2013-11-22 14:07:00,70.7,66.4,30.17,ENE,61,3.0,8.0,86,0.00,,,0.04,meteohub,2013-11-22 20:07:00,
2013-11-22 14:12:00,70.9,66.7,30.17,ENE,68,5.0,9.0,87,0.00,,,0.04,meteohub,2013-11-22 20:12:00,
2013-11-22 14:17:00,70.9,66.7,30.16,ENE,75,1.0,9.0,87,0.00,,,0.04,meteohub,2013-11-22 20:17:00,
2013-11-22 14:22:00,71.1,66.9,30.16,ENE,70,0.0,9.0,87,0.00,,,0.04,meteohub,2013-11-22 20:22:00,
2013-11-22 14:27:00,71.4,67.1,30.16,ENE,74,3.0,7.0,86,0.00,,,0.04,meteohub,2013-11-22 20:27:00,
2013-11-22 14:32:00,71.8,67.3,30.16,NNW,343,3.0,7.0,86,0.00,,,0.04,meteohub,2013-11-22 20:32:00,
2013-11-22 14:37:00,71.8,67.1,30.16,NE,42,3.0,5.0,85,0.00,,,0.04,meteohub,2013-11-22 20:37:00,
2013-11-22 14:42:00,71.8,67.1,30.16,NE,34,0.0,5.0,85,0.00,,,0.04,meteohub,2013-11-22 20:42:00,
2013-11-22 14:47:00,71.8,67.1,30.15,East,80,2.0,4.0,85,0.00,,,0.04,meteohub,2013-11-22 20:47:00,
2013-11-22 14:52:00,72.1,67.5,30.15,NE,56,2.0,5.0,85,0.00,,,0.04,meteohub,2013-11-22 20:52:00,
2013-11-22 14:57:00,72.7,67.3,30.15,ENE,65,1.0,5.0,83,0.00,,,0.04,meteohub,2013-11-22 20:57:00,
2013-11-22 15:02:00,72.9,67.8,30.15,NW,304,2.0,7.0,84,0.00,,,0.04,meteohub,2013-11-22 21:02:00,
2013-11-22 15:07:00,73.0,67.3,30.15,ENE,66,4.0,7.0,82,0.00,,,0.04,meteohub,2013-11-22 21:07:00,
2013-11-22 15:12:00,73.0,67.3,30.15,NE,51,2.0,7.0,82,0.00,,,0.04,meteohub,2013-11-22 21:12:00,
2013-11-22 15:17:00,73.2,67.5,30.15,ENE,58,3.0,6.0,82,0.00,,,0.04,meteohub,2013-11-22 21:17:00,
2013-11-22 15:22:00,73.2,67.5,30.15,NE,44,0.0,6.0,82,0.00,,,0.04,meteohub,2013-11-22 21:22:00,
2013-11-22 15:27:00,73.0,66.9,30.15,ENE,67,2.0,6.0,81,0.00,,,0.04,meteohub,2013-11-22 21:27:00,
2013-11-22 15:32:00,72.9,66.4,30.15,ENE,65,2.0,8.0,80,0.00,,,0.04,meteohub,2013-11-22 21:32:00,
2013-11-22 15:37:00,72.7,66.6,30.15,NNE,30,0.0,8.0,81,0.00,,,0.04,meteohub,2013-11-22 21:37:00,
2013-11-22 15:42:00,72.7,66.6,30.15,ENE,57,3.0,8.0,81,0.00,,,0.04,meteohub,2013-11-22 21:42:00,
2013-11-22 15:47:00,72.7,66.2,30.15,ENE,63,4.0,5.0,80,0.00,,,0.04,meteohub,2013-11-22 21:47:00,
2013-11-22 15:52:00,72.7,66.2,30.15,East,94,1.0,5.0,80,0.00,,,0.04,meteohub,2013-11-22 21:52:00,
2013-11-22 15:57:00,72.5,66.4,30.15,ENE,61,1.0,5.0,81,0.00,,,0.04,meteohub,2013-11-22 21:57:00,
2013-11-22 16:02:00,72.3,66.2,30.15,ESE,104,3.0,5.0,81,0.00,,,0.04,meteohub,2013-11-22 22:02:00,
2013-11-22 16:07:00,72.1,66.0,30.15,ESE,104,2.0,5.0,81,0.00,,,0.04,meteohub,2013-11-22 22:07:00,
2013-11-22 16:12:00,72.1,66.4,30.15,ESE,104,0.0,4.0,82,0.00,,,0.04,meteohub,2013-11-22 22:12:00,
2013-11-22 16:17:00,72.0,66.2,30.15,ESE,104,0.0,4.0,82,0.00,,,0.04,meteohub,2013-11-22 22:17:00,
2013-11-22 16:22:00,72.0,66.6,30.15,ESE,104,0.0,3.0,83,0.00,,,0.04,meteohub,2013-11-22 22:22:00,
2013-11-22 16:27:00,71.8,66.4,30.15,ESE,104,0.0,1.0,83,0.00,,,0.04,meteohub,2013-11-22 22:27:00,
2013-11-22 16:32:00,71.8,66.7,30.14,ESE,104,0.0,1.0,84,0.00,,,0.04,meteohub,2013-11-22 22:32:00,
2013-11-22 16:37:00,71.4,66.7,30.14,ESE,104,0.0,1.0,85,0.00,,,0.04,meteohub,2013-11-22 22:37:00,
2013-11-22 16:42:00,71.2,66.6,30.14,ESE,104,0.0,1.0,85,0.00,,,0.04,meteohub,2013-11-22 22:42:00,
2013-11-22 16:47:00,70.9,66.6,30.14,ESE,104,0.0,1.0,86,0.00,,,0.04,meteohub,2013-11-22 22:47:00,
2013-11-22 16:52:00,70.5,66.2,30.15,ESE,104,0.0,1.0,86,0.00,,,0.04,meteohub,2013-11-22 22:52:00,
2013-11-22 16:57:00,70.3,66.2,30.15,ESE,104,0.0,1.0,87,0.00,,,0.04,meteohub,2013-11-22 22:57:00,
2013-11-22 17:02:00,70.0,66.0,30.15,ESE,104,0.0,1.0,87,0.00,,,0.04,meteohub,2013-11-22 23:02:00,
2013-11-22 17:07:00,69.6,65.8,30.15,ESE,104,0.0,0.0,88,0.00,,,0.04,meteohub,2013-11-22 23:07:00,
2013-11-22 17:12:00,69.4,65.7,30.15,ESE,104,0.0,0.0,88,0.00,,,0.04,meteohub,2013-11-22 23:12:00,
2013-11-22 17:17:00,69.1,65.7,30.15,ESE,104,0.0,1.0,89,0.00,,,0.04,meteohub,2013-11-22 23:17:00,
2013-11-22 17:22:00,68.7,65.7,30.15,ESE,104,0.0,1.0,90,0.00,,,0.04,meteohub,2013-11-22 23:22:00,
2013-11-22 17:27:00,68.4,65.7,30.15,ESE,104,0.0,1.0,91,0.00,,,0.04,meteohub,2013-11-22 23:27:00,
2013-11-22 17:32:00,68.2,65.5,30.15,ESE,104,0.0,1.0,91,0.00,,,0.04,meteohub,2013-11-22 23:32:00,
2013-11-22 17:37:00,68.0,65.7,30.15,ESE,104,0.0,0.0,92,0.00,,,0.04,meteohub,2013-11-22 23:37:00,
2013-11-22 17:42:00,67.8,65.5,30.16,ESE,104,0.0,0.0,92,0.00,,,0.04,meteohub,2013-11-22 23:42:00,
2013-11-22 17:47:00,67.8,65.5,30.16,ESE,104,0.0,0.0,92,0.00,,,0.04,meteohub,2013-11-22 23:47:00,
2013-11-22 17:52:00,67.8,65.5,30.16,ESE,104,0.0,0.0,92,0.00,,,0.04,meteohub,2013-11-22 23:52:00,
2013-11-22 17:57:00,67.6,65.3,30.16,ESE,104,0.0,0.0,92,0.00,,,0.04,meteohub,2013-11-22 23:57:00,
2013-11-22 18:02:00,67.6,65.5,30.16,ESE,104,0.0,0.0,93,0.00,,,0.04,meteohub,2013-11-23 00:02:00,
2013-11-22 18:07:00,67.6,65.5,30.17,ESE,104,0.0,0.0,93,0.00,,,0.04,meteohub,2013-11-23 00:07:00,
2013-11-22 18:12:00,67.5,65.3,30.17,ESE,104,0.0,0.0,93,0.00,,,0.04,meteohub,2013-11-23 00:12:00,
2013-11-22 18:17:00,67.3,65.1,30.17,ESE,104,0.0,0.0,93,0.00,,,0.04,meteohub,2013-11-23 00:17:00,
2013-11-22 18:22:00,67.3,65.1,30.17,ESE,104,0.0,0.0,93,0.00,,,0.04,meteohub,2013-11-23 00:22:00,
2013-11-22 18:27:00,66.9,64.8,30.17,ESE,104,0.0,0.0,93,0.00,,,0.04,meteohub,2013-11-23 00:27:00,
2013-11-22 18:32:00,66.7,64.9,30.17,ESE,104,1.0,1.0,94,0.00,,,0.04,meteohub,2013-11-23 00:32:00,
2013-11-22 18:37:00,66.7,65.3,30.17,ESE,104,0.0,2.0,95,0.00,,,0.04,meteohub,2013-11-23 00:37:00,
2013-11-22 18:42:00,66.7,65.3,30.17,ESE,104,0.0,2.0,95,0.00,,,0.04,meteohub,2013-11-23 00:42:00,
2013-11-22 18:47:00,66.7,65.3,30.17,ESE,104,0.0,2.0,95,0.00,,,0.04,meteohub,2013-11-23 00:47:00,
2013-11-22 18:52:00,66.7,64.9,30.17,ESE,104,0.0,1.0,94,0.00,,,0.04,meteohub,2013-11-23 00:52:00,
2013-11-22 18:57:00,66.6,64.8,30.17,ESE,104,0.0,0.0,94,0.00,,,0.04,meteohub,2013-11-23 00:57:00,
2013-11-22 19:02:00,66.6,65.1,30.17,ESE,104,0.0,0.0,95,0.00,,,0.04,meteohub,2013-11-23 01:02:00,
2013-11-22 19:07:00,66.4,64.9,30.17,ESE,104,0.0,0.0,95,0.00,,,0.04,meteohub,2013-11-23 01:07:00,
2013-11-22 19:12:00,66.4,64.9,30.17,ESE,104,0.0,0.0,95,0.00,,,0.04,meteohub,2013-11-23 01:12:00,
2013-11-22 19:17:00,66.0,64.6,30.17,ESE,104,0.0,0.0,95,0.00,,,0.04,meteohub,2013-11-23 01:17:00,
2013-11-22 19:22:00,65.8,64.4,30.17,ESE,104,0.0,0.0,95,0.00,,,0.04,meteohub,2013-11-23 01:22:00,
2013-11-22 19:27:00,65.8,64.4,30.17,ESE,104,0.0,0.0,95,0.00,,,0.04,meteohub,2013-11-23 01:27:00,
2013-11-22 19:32:00,65.7,64.4,30.17,ESE,104,0.0,0.0,96,0.00,,,0.04,meteohub,2013-11-23 01:32:00,
2013-11-22 19:37:00,65.7,64.4,30.17,ESE,104,0.0,0.0,96,0.00,,,0.04,meteohub,2013-11-23 01:37:00,
2013-11-22 19:42:00,65.5,64.0,30.17,ESE,104,0.0,0.0,95,0.00,,,0.04,meteohub,2013-11-23 01:42:00,
2013-11-22 19:47:00,65.1,63.7,30.17,ESE,104,0.0,0.0,95,0.00,,,0.04,meteohub,2013-11-23 01:47:00,
2013-11-22 19:52:00,65.1,64.0,30.17,ESE,104,0.0,0.0,96,0.00,,,0.04,meteohub,2013-11-23 01:52:00,
2013-11-22 19:57:00,64.9,63.9,30.17,ESE,104,0.0,0.0,96,0.00,,,0.04,meteohub,2013-11-23 01:57:00,
2013-11-22 20:02:00,64.9,63.9,30.17,ESE,104,0.0,0.0,96,0.00,,,0.04,meteohub,2013-11-23 02:02:00,
2013-11-22 20:07:00,64.9,64.0,30.17,ESE,104,0.0,0.0,97,0.00,,,0.04,meteohub,2013-11-23 02:07:00,
2013-11-22 20:12:00,64.9,64.0,30.18,ESE,104,0.0,0.0,97,0.00,,,0.04,meteohub,2013-11-23 02:12:00,
2013-11-22 20:17:00,64.8,63.9,30.17,ESE,104,0.0,0.0,97,0.00,,,0.04,meteohub,2013-11-23 02:17:00,
2013-11-22 20:22:00,64.8,63.9,30.17,ESE,104,0.0,0.0,97,0.00,,,0.04,meteohub,2013-11-23 02:22:00,
2013-11-22 20:27:00,64.9,64.0,30.18,ESE,104,0.0,3.0,97,0.00,,,0.04,meteohub,2013-11-23 02:27:00,
2013-11-22 20:32:00,64.9,64.0,30.18,ESE,104,0.0,3.0,97,0.00,,,0.04,meteohub,2013-11-23 02:32:00,
2013-11-22 20:37:00,64.8,63.9,30.18,ESE,104,0.0,3.0,97,0.00,,,0.04,meteohub,2013-11-23 02:37:00,
2013-11-22 20:42:00,64.8,64.2,30.18,ESE,104,0.0,1.0,98,0.00,,,0.04,meteohub,2013-11-23 02:42:00,
2013-11-22 20:47:00,64.8,64.2,30.18,ESE,104,0.0,0.0,98,0.00,,,0.04,meteohub,2013-11-23 02:47:00,
2013-11-22 20:52:00,64.8,64.2,30.18,ESE,104,0.0,0.0,98,0.00,,,0.04,meteohub,2013-11-23 02:52:00,
2013-11-22 20:57:00,64.8,64.2,30.18,ESE,104,0.0,0.0,98,0.00,,,0.04,meteohub,2013-11-23 02:57:00,
2013-11-22 21:02:00,64.8,64.2,30.18,ESE,104,0.0,0.0,98,0.00,,,0.04,meteohub,2013-11-23 03:02:00,
2013-11-22 21:07:00,64.6,64.0,30.18,ESE,104,0.0,0.0,98,0.00,,,0.04,meteohub,2013-11-23 03:07:00,
2013-11-22 21:12:00,64.6,64.0,30.18,ESE,104,1.0,1.0,98,0.00,,,0.04,meteohub,2013-11-23 03:12:00,
2013-11-22 21:17:00,64.6,64.0,30.18,ESE,104,0.0,2.0,98,0.00,,,0.04,meteohub,2013-11-23 03:17:00,
2013-11-22 21:22:00,64.8,64.2,30.18,NE,49,0.0,2.0,98,0.00,,,0.04,meteohub,2013-11-23 03:22:00,
2013-11-22 21:27:00,64.8,64.2,30.19,NE,49,0.0,3.0,98,0.00,,,0.04,meteohub,2013-11-23 03:27:00,
2013-11-22 21:32:00,64.9,64.4,30.18,NNW,338,0.0,3.0,98,0.00,,,0.04,meteohub,2013-11-23 03:32:00,
2013-11-22 21:37:00,64.9,64.4,30.19,NNE,26,0.0,2.0,98,0.00,,,0.04,meteohub,2013-11-23 03:37:00,
2013-11-22 21:42:00,64.9,64.4,30.19,NNE,24,0.0,3.0,98,0.00,,,0.04,meteohub,2013-11-23 03:42:00,
2013-11-22 21:47:00,64.8,64.2,30.19,NNE,24,0.0,3.0,98,0.00,,,0.04,meteohub,2013-11-23 03:47:00,
2013-11-22 21:52:00,64.8,64.2,30.19,NNE,21,0.0,3.0,98,0.00,,,0.04,meteohub,2013-11-23 03:52:00,
2013-11-22 21:57:00,64.8,64.2,30.19,NNE,21,0.0,2.0,98,0.00,,,0.04,meteohub,2013-11-23 03:57:00,
2013-11-22 22:02:00,64.6,64.0,30.19,NNE,22,0.0,2.0,98,0.00,,,0.04,meteohub,2013-11-23 04:02:00,
2013-11-22 22:07:00,64.6,64.0,30.19,NNE,22,0.0,1.0,98,0.00,,,0.04,meteohub,2013-11-23 04:07:00,
2013-11-22 22:12:00,64.6,64.0,30.19,NNE,22,0.0,1.0,98,0.00,,,0.04,meteohub,2013-11-23 04:12:00,
2013-11-22 22:17:00,64.4,63.9,30.19,NNE,22,0.0,1.0,98,0.00,,,0.04,meteohub,2013-11-23 04:17:00,
2013-11-22 22:22:00,64.2,63.7,30.19,NNE,22,0.0,1.0,98,0.00,,,0.04,meteohub,2013-11-23 04:22:00,
2013-11-22 22:27:00,64.2,63.7,30.19,NNE,22,0.0,1.0,98,0.00,,,0.04,meteohub,2013-11-23 04:27:00,
2013-11-22 22:32:00,64.2,63.7,30.19,NNE,21,2.0,2.0,98,0.00,,,0.04,meteohub,2013-11-23 04:32:00,
2013-11-22 22:37:00,64.2,63.7,30.19,NNE,21,0.0,2.0,98,0.00,,,0.04,meteohub,2013-11-23 04:37:00,
2013-11-22 22:42:00,64.0,63.5,30.19,NNE,26,0.0,2.0,98,0.00,,,0.04,meteohub,2013-11-23 04:42:00,
2013-11-22 22:47:00,64.0,63.5,30.19,NNE,26,0.0,2.0,98,0.00,,,0.04,meteohub,2013-11-23 04:47:00,
2013-11-22 22:52:00,64.0,63.5,30.19,NNE,26,0.0,2.0,98,0.00,,,0.04,meteohub,2013-11-23 04:52:00,
2013-11-22 22:57:00,63.9,63.3,30.19,NNE,26,0.0,1.0,98,0.00,,,0.04,meteohub,2013-11-23 04:57:00,
2013-11-22 23:01:00,63.9,63.3,30.19,NNE,26,0.0,0.0,98,0.00,,,0.04,meteohub,2013-11-23 05:01:00,
2013-11-22 23:02:00,63.9,63.3,30.19,NNE,26,0.0,0.0,98,0.00,,,0.04,meteohub,2013-11-23 05:02:00,
2013-11-22 23:07:00,63.9,63.3,30.19,NNE,26,0.0,1.0,98,0.00,,,0.04,meteohub,2013-11-23 05:07:00,
2013-11-22 23:12:00,63.7,63.1,30.20,NNE,26,0.0,1.0,98,0.00,,,0.04,meteohub,2013-11-23 05:12:00,
2013-11-22 23:17:00,63.7,63.1,30.20,NNE,26,0.0,1.0,98,0.00,,,0.04,meteohub,2013-11-23 05:17:00,
2013-11-22 23:22:00,63.5,63.0,30.20,NNE,26,0.0,1.0,98,0.00,,,0.04,meteohub,2013-11-23 05:22:00,
2013-11-22 23:27:00,63.3,62.8,30.19,NNE,26,0.0,1.0,98,0.00,,,0.04,meteohub,2013-11-23 05:27:00,
2013-11-22 23:32:00,63.3,62.8,30.19,ENE,65,0.0,3.0,98,0.00,,,0.04,meteohub,2013-11-23 05:32:00,
2013-11-22 23:37:00,63.3,62.8,30.19,ENE,65,0.0,3.0,98,0.00,,,0.04,meteohub,2013-11-23 05:37:00,
2013-11-22 23:42:00,63.1,62.6,30.19,ENE,65,0.0,3.0,98,0.00,,,0.04,meteohub,2013-11-23 05:42:00,
2013-11-22 23:47:00,63.1,62.8,30.19,ENE,66,0.0,1.0,99,0.00,,,0.04,meteohub,2013-11-23 05:47:00,
2013-11-22 23:52:00,63.1,62.8,30.19,ENE,65,0.0,1.0,99,0.00,,,0.04,meteohub,2013-11-23 05:52:00,
2013-11-22 23:57:00,63.1,62.8,30.19,ENE,65,0.0,1.0,99,0.00,,,0.04,meteohub,2013-11-23 05:57:00,